Location: Le Rocchette
(44.3500°N, 7.8333°E)
Time: 11:36:31
(UTC+00:00)

Gbstr 26 Del rocket - Pass Details

Date: 17 November 2019
Orbit: 493 x 1264 km, 51.8° (Epoch: 13 December)

Event Time Altitude Azimuth Distance (km) Brightness Sun altitude
Exits shadow 04:09:02 46° 43° (NE) 681 3.4 -24.5°
Drops below altitude 10° 04:11:46 10° 57° (ENE) 1,691 6.0 -24.0°
Sets 04:13:55 0° 59° (ENE) 2,578 7.1 -23.6°
